Flag for U.S.A. Weather past 2 weeks in Columbia, South Carolina, U.S.A.

Now
72 °F

Overcast.


Feels Like: 72 °F
Forecast: 70 / 80 °F
Wind: 3 mph from North

Location: Columbia Owens Downtown Airport

Current Time: Jul 31, 2014 at 11:18:56 PM

Latest Report: Jul 31, 2014 at 10:53 PM


Visibility: 10 mi

Pressure: 30.09 "Hg

Humidity: 81%

Dew point: 66 °F

Location of ColumbiaLocation

Historic Weather in Columbia — Graph

°F

Columbia temperature yesterday

Maximum temperature yesterday: 88 °F (at 1:53 PM)
Minimum temperature yesterday: 69 °F (at 6:53 AM)
Average temperature yesterday: 77 °F

Past Weeks' High & Low Weather Summary

 TemperatureHumidityPressure
High98 °F (Jul 27, 4:53 PM)94% (Jul 21, 6:53 AM)30.16 "Hg (Jul 21, 6:53 AM)
Low68 °F (Jul 17, 3:53 AM)25% (Jul 28, 4:53 PM)29.77 "Hg (Jul 28, 4:53 PM)
Average80 °F68%30.01 "Hg
* Reported Jul 16 9:53 PM — Jul 31 9:53 PM, Columbia, Weather by CustomWeather, © 2014

Note: Actual official high and low records may vary slightly from our data, if they occured in-between our weather recording intervals... More about our weather records

Advertising

Columbia weather history for previous 24 hours

 ConditionsComfort  
Time TempWeatherWind HumidityBarometerVisibility
9:53 PM
Jul 31
71 °FPassing clouds.No wind87%30.07 "Hg10 mi
8:53 PM71 °FPassing clouds.3 mph87%30.07 "Hg10 mi
7:53 PM72 °FCloudy.5 mph87%30.09 "Hg10 mi
6:53 PM72 °FBroken clouds.5 mph87%30.07 "Hg10 mi
6:04 PM72 °FRain. Fog.5 mph91%30.08 "Hg2 mi
5:53 PM72 °FRain. Fog.5 mph91%30.08 "Hg3 mi
4:53 PM72 °FRain. Fog.3 mph87%30.07 "Hg3 mi
3:53 PM82 °FMostly cloudy.No wind67%30.06 "Hg10 mi
2:53 PM83 °FMostly cloudy.6 mph59%30.07 "Hg10 mi
1:53 PM84 °FMore clouds than sun.5 mph53%30.06 "Hg10 mi
12:53 PM84 °FBroken clouds.5 mph61%30.07 "Hg10 mi
11:53 AM81 °FScattered clouds.5 mph69%30.08 "Hg10 mi
10:53 AM79 °FScattered clouds.5 mph69%30.08 "Hg10 mi
9:53 AM76 °FOvercast.5 mph74%30.08 "Hg10 mi
8:53 AM75 °FOvercast.5 mph76%30.07 "Hg10 mi
7:53 AM73 °FPartly sunny.3 mph81%30.06 "Hg10 mi
6:53 AM72 °FPassing clouds.No wind84%30.06 "Hg10 mi
5:53 AM72 °FOvercast.No wind84%30.05 "Hg10 mi
4:53 AM72 °FPassing clouds.3 mph84%30.04 "Hg10 mi
3:53 AM72 °FClear.3 mph84%30.03 "Hg10 mi
2:53 AM72 °FClear.No wind87%30.04 "Hg10 mi
1:53 AM73 °FPassing clouds.No wind84%30.04 "Hg10 mi
12:53 AM73 °FPassing clouds.No wind84%30.06 "Hg10 mi
11:53 PM
Jul 30
73 °FClear.No wind81%30.05 "Hg10 mi
Weather by CustomWeather, © 2014

See weather overviewHow to use our weather pages